C/2018 A3 ( ATLAS )

Japanese version
Home page
Updated on May 21, 2018

---------------------------------------------------------------------

* Profile

Discovery Date January 10, 2018
Magnitude 18.7 mag
Discoverer Asteroid Terrestrial-impact Last Alert System (ATLAS) search program

* Pictures

* Orbital Elements

Epoch 2018 Dec. 28.0 TT = JDT 2458480.5
T 2019 Jan. 12.81445 TT                                 MPCW
q   3.2768565            (2000.0)            P               Q
z  +0.0019091      Peri.   86.42001     -0.24789425     +0.95548435
 +/-0.0000394      Node   194.28072     +0.40378701     +0.25202296
e   0.9937443      Incl.  139.56325     +0.88062733     +0.15340822
From 279 observations 2018 Jan. 10-Mar. 25, mean residual 0".4.

* Finding Charts

* Magnitudes Graph

        m1 = 8.0 + 5 log d + 10.0 log r

---------------------------------------------------------------------

The orbital elements are published on M.P.E.C. 2018-F152.
The charts are made with StellaNavigator Ver.10 (AstroArts).
The magnitudes graphs are made with Comet for Windows.

---------------------------------------------------------------------

Copyright(C) Seiichi Yoshida (comet@aerith.net). All rights reserved.